Location: Cosy Dell
(34.2789°N, 117.4537°W)
Time: 21:05:03
(UTC+00:00)

Cosmos 2151 - Pass Details

Date: 14 July 2020
Orbit: 580 x 602 km, 82.5° (Epoch: 13 August)

Event Time Altitude Azimuth Distance (km) Brightness Sun altitude
Exits shadow 05:20:15 30° 57° (ENE) 1,078 4.2 -23.0°
Drops below altitude 10° 05:22:58 10° 25° (NNE) 1,929 5.9 -23.4°
Sets 05:25:18 0° 17° (NNE) 2,831 6.9 -23.7°
